CAPE
1 1 5 180 334 103 44 237 85 93 74 2 0 0 0 17 267 549 0 26 268 476 736 1178 2309 2150 1940 1942 1868 1727 2179 2017 1775 1719 1689 1633 1877 2341 2301 2171 2124 2443 2528 2500 2309 2316 2446 2617 2350
12 0 255 483 140 76 441 305 137 100 22 0 0 0 88 486 47 0 10 77 288 473 721 851 2264 2252 2240 2027 1737 1667 2212 2097 2117 2203 1622 1641 1563 1949 2173 1980 2135 2367 2515 2480 2199 2217 2347 2464 2588
4 42 539 810 68 512 506 445 162 13 0 41 0 387 404 574 0 0 22 124 315 663 932 1468 1892 2184 2175 2044 1832 1876 2140 2064 2207 2072 1589 1647 1973 1546 1780 2089 1934 2234 2394 2354 2300 2167 2039 1983 2039
214 458 732 659 178 224 297 449 18 0 0 308 186 304 75 69 0 0 30 126 446 754 941 1542 1930 2129 2073 2165 1865 2002 2012 1963 1912 1865 1778 1243 1752 1724 2115 1893 1937 2169 2140 2085 2188 2099 2038 2115 1999
276 833 610 278 296 100 423 61 0 1 160 312 216 50 23 0 1 1 45 155 476 617 1083 1427 2341 1924 1888 1989 1828 1836 2029 1781 1737 1736 1797 1285 1821 1705 1883 1935 1982 2089 1979 2023 1981 2012 2027 2108 2280
653 730 477 205 402 362 492 487 0 6 411 188 103 8 160 29 0 0 70 231 415 627 1042 1482 1967 2034 1990 1969 1853 1815 1911 1681 1882 1861 1729 1806 1827 1710 1795 1616 1754 1794 1988 1984 2088 2110 2342 2210 2371
543 750 380 294 423 302 91 533 456 430 181 156 121 89 91 0 0 17 89 193 381 606 1029 1269 1430 1897 2004 1821 1828 1851 1688 1894 1905 1808 1814 1715 1790 1839 1728 1694 1661 1780 1753 1991 2091 2194 2347 2298 2541
582 673 275 194 263 282 32 203 312 487 296 128 159 81 46 0 3 18 108 213 392 745 1096 1103 1131 1402 1648 1673 1649 1841 1784 1868 1870 1973 1778 1853 1966 1775 1691 1951 1932 1740 1893 1930 2069 2162 2207 2504 2413
242 529 166 174 246 221 128 204 360 636 221 293 192 130 0 0 7 60 147 249 542 767 799 926 1423 1501 1411 1522 1804 1844 1836 1895 1685 1781 1807 1560 1702 1422 1546 2022 1587 1653 1775 1649 1973 2100 2263 2412 2317
414 299 149 135 207 254 196 238 367 578 487 393 254 0 0 0 13 52 135 398 564 645 480 952 899 1207 1317 1276 1733 1730 1537 1717 1680 1846 1751 1699 1740 1919 1444 1892 1748 1597 1574 1864 1939 1586 1583 2117 1489
278 306 115 270 154 122 80 131 154 339 434 240 384 95 3 6 1 37 295 453 469 367 491 703 1183 1182 1281 1993 1646 1557 1397 1392 1805 1766 1442 1493 1416 1526 1657 1762 1191 1264 1862 1291 1459 1503 1621 1833 1517
155 52 53 251 186 54 62 58 73 241 413 265 376 48 0 5 17 114 289 404 524 386 539 784 865 1264 1242 1448 1095 999 1291 1260 1243 1636 1643 1485 1401 1512 1226 1087 1254 890 967 1497 1369 1487 2023 2075 2081
19 0 2 31 229 113 94 109 115 343 301 231 131 0 0 0 26 140 216 306 378 545 522 622 714 772 1714 1426 979 991 1211 1335 1461 1443 1683 1315 1085 1430 1254 1445 1211 1099 995 1295 1335 1705 1977 1913 1677
65 3 0 8 64 188 127 69 161 628 200 183 16 8 0 0 52 178 198 159 64 147 404 563 397 858 1158 1355 1353 1230 1192 1623 1354 1300 1759 1698 1155 1213 1382 1436 1367 1346 1166 1316 1565 2060 1984 1888 1415
8 0 0 3 48 85 245 222 163 870 384 158 20 0 0 48 163 183 132 76 20 127 359 528 276 991 1227 1425 1453 1380 1436 1312 1378 2170 1778 1778 1448 1588 1359 1291 1253 1305 1422 1696 1874 1992 1934 1301 1191
18 0 2 0 17 158 248 148 202 320 449 335 20 0 35 178 217 180 45 4 0 79 384 416 172 804 1168 1209 1235 1163 1353 1549 1466 2339 1415 1867 2091 1907 1863 1682 1319 1504 1216 1519 1506 1508 1465 965 721
5 59 1 17 12 288 466 190 341 937 690 839 262 48 121 261 219 145 32 31 0 72 318 376 375 523 972 1451 1417 1430 1773 1359 1198 1960 1589 1869 2080 1906 1253 1476 1907 1581 1391 1436 1393 1447 1438 1057 813
47 32 0 15 153 498 322 275 733 823 954 739 880 474 299 247 217 108 298 179 0 23 210 362 535 824 1140 1315 1395 1363 1754 2390 1559 1310 1778 1871 1996 2049 1409 1454 1789 1301 1327 1377 1466 1590 1164 968 1044
29 9 0 0 296 422 245 133 695 946 884 802 716 704 503 339 124 212 504 461 143 0 213 354 683 1348 1329 1274 1133 1405 1542 2703 1482 1463 1634 1999 1680 1984 2019 1385 1762 1400 1214 1443 1940 1533 1465 979 1163
0 0 0 0 86 163 27 2 25 688 593 955 881 554 477 417 174 241 604 615 394 123 309 524 847 1618 1689 1506 1638 1421 1548 1598 1521 1830 2033 1587 1618 1709 1489 1568 1340 1372 1412 2185 1916 1735 770 874 1203
2 6 0 0 0 7 63 165 436 289 588 987 893 711 690 445 349 150 399 715 563 279 306 650 943 1544 1765 1544 1976 2370 2108 2369 2122 2334 1517 1563 1602 1440 1401 1493 1512 1993 1970 1303 2005 1900 2028 795 1052
0 1 0 0 0 19 17 2 117 501 706 881 967 961 814 724 426 323 462 667 678 572 403 493 1149 1500 1724 2003 1762 1977 1127 1036 1255 1721 1736 1374 1263 1586 1363 1394 1660 1775 1603 1686 1899 1708 1568 1966 878
18 0 0 0 0 0 0 0 189 372 268 283 967 985 961 1086 723 561 445 628 623 711 613 607 1086 1439 1473 1886 1917 2111 1702 749 930 1495 2940 1936 1592 1500 1451 1519 1721 2263 1904 2017 1969 2377 2172 1121 1118
0 0 0 0 0 0 6 0 66 99 140 235 302 353 924 726 765 640 624 599 660 661 728 684 1155 1614 1744 1787 2101 2160 1659 1403 1309 1449 3385 2527 1645 1530 1721 2140 2257 2547 2028 2374 2250 2514 2519 2167 1839
0 0 0 0 0 0 0 17 86 43 91 127 201 234 268 452 724 660 889 672 694 754 845 905 1124 1791 1914 1773 1802 2007 2154 2156 1884 2074 894 1731 1470 1459 2629 2278 2332 2083 2403 2569 2259 2545 2149 2482 2145
0 0 0 0 0 0 0 15 16 15 63 103 64 70 186 312 330 577 564 904 768 801 1033 1102 1299 1749 1932 1903 1922 2059 2197 1918 1703 1616 865 1341 1264 1489 2596 1730 2146 2012 1812 2352 2593 2332 1770 2088 2291
0 0 0 0 3 1 0 27 13 16 39 56 361 208 122 405 391 372 1093 1009 909 862 1013 1246 1453 1842 2012 1791 2017 2131 2254 2074 1396 1249 1457 1317 1526 1363 2395 2129 1385 1557 1800 2177 2502 2059 2324 2283 2459
0 0 0 0 1 0 0 7 106 14 14 13 70 185 127 222 525 509 648 985 1015 1003 966 1215 1757 1972 2039 1732 1727 1931 2110 2126 1938 1507 1641 1577 1530 1862 1914 2506 2226 1808 1678 2048 2189 2018 2360 2590 2145
0 0 0 0 0 1 19 42 11 23 21 7 57 251 192 145 236 512 595 666 1127 1000 831 1068 1386 1505 1632 1635 1651 1819 1967 1887 1898 1487 1509 1710 2122 2098 2209 2590 2480 2247 2150 2378 2688 2207 1743 2414 2129
0 0 0 2 0 0 25 73 26 0 4 16 147 259 227 320 161 177 331 401 464 635 915 1022 1110 1190 1302 1470 1501 1656 1705 2154 1625 1612 1394 1409 1884 2320 2206 2177 2749 2643 2583 2656 2437 1704 1669 2206 2170
CIN
-10 0 -20 -11 -1 -2 -19 -1 -13 -13 -8 -15 0 0 0 -5 0 -1 0 -26 -15 -7 -12 -2 0 0 0 0 0 0 0 0 -1 -2 -5 -8 -4 -2 0 0 0 0 0 0 0 0 0 0 0
-4 0 -11 0 -3 -3 0 0 -13 -17 -55 0 0 0 -11 -8 -85 0 -31 -30 -14 -4 -2 -4 -1 0 0 0 -1 -7 0 0 0 0 0 0 -1 0 0 0 0 0 0 0 0 0 0 0 0
0 -2 0 0 -2 0 0 0 -15 -55 0 -33 0 0 -1 0 0 0 -60 -47 -7 0 0 0 0 0 0 0 0 0 0 0 0 0 0 0 0 0 0 0 0 0 0 0 0 -5 -3 -2 -2
-3 0 0 0 0 0 -1 0 -35 -2 0 0 -3 -12 -102 -96 0 0 -94 -41 -2 0 0 -4 0 0 0 0 0 0 0 0 0 -2 0 0 0 0 0 0 0 0 0 0 0 0 -1 -4 -2
-1 0 -1 0 0 -7 0 -23 0 0 -1 -2 -6 -84 -38 0 0 -13 -89 -30 0 0 0 0 0 0 0 0 0 -2 0 0 0 0 0 0 0 0 0 0 0 0 0 0 0 -6 -6 -4 0
0 0 -1 -1 0 0 0 0 0 -2 0 -41 -38 -103 -74 -78 0 0 -60 -4 0 0 0 0 0 0 0 0 0 -1 0 0 0 0 -1 0 0 0 0 0 0 0 0 0 -6 -6 -6 -4 0
0 0 0 0 0 -2 -18 0 0 0 -11 -21 -35 -39 -86 0 0 -24 -41 -3 0 0 0 0 0 0 0 0 0 0 0 0 0 0 0 0 0 0 0 0 0 0 0 -2 -3 -2 -2 -3 -2
0 0 0 -1 0 0 -51 -9 -28 0 -20 -27 -19 -14 -92 0 -15 -21 -27 -1 0 0 0 0 0 0 0 0 0 0 0 0 0 0 -1 0 0 0 -4 -4 0 0 0 -4 -3 -4 -6 -3 -2
-11 0 0 -4 0 -5 -6 -7 0 -2 -16 -27 -20 -33 0 0 -13 -46 -23 -1 0 0 0 0 0 0 0 0 0 0 0 0 -4 0 -1 -10 0 0 0 -1 0 0 -2 -8 -5 -9 -9 -7 -2
-1 0 0 -1 -4 -12 -2 -3 -11 0 -4 -21 -25 0 0 0 -79 -48 -16 0 0 0 0 0 0 0 0 0 0 0 0 0 0 0 0 0 0 -1 0 0 0 -3 -10 -12 -13 -26 -31 -21 0
0 0 -3 -1 -21 -11 -50 -52 -46 -3 -7 -21 -16 -109 -58 -121 0 -9 0 0 0 -1 0 0 0 0 0 0 0 0 0 0 0 0 0 0 0 0 0 0 0 0 -7 0 -9 -12 0 0 0
-2 -21 -5 -3 -17 -54 -22 -60 -41 -16 -4 -10 -23 -110 0 -124 -83 -17 0 0 -1 -9 0 0 0 0 0 0 0 0 0 0 0 0 0 0 0 0 0 0 0 -1 0 -1 0 0 0 0 0
-21 0 -1 -12 -3 -11 -29 -12 -42 -8 -26 -46 -77 0 0 0 -55 -8 -1 0 -2 -8 -7 -1 -1 -1 0 0 0 0 0 0 0 0 0 0 0 0 0 0 0 0 -3 0 0 0 0 0 0
-9 -32 0 -12 -8 0 -21 -70 -15 -1 -62 -45 -103 -93 0 0 -34 -9 -11 -13 -41 -28 -15 -12 -17 -1 0 0 0 0 0 0 0 0 0 0 0 0 0 0 0 0 0 0 0 0 0 0 0
-61 0 0 -3 -19 -9 0 -6 -11 -1 -19 -38 -82 0 0 -46 -20 -16 -24 -44 -69 -36 -15 -14 -36 0 0 0 0 0 0 0 0 0 0 0 0 0 0 0 0 0 -4 -7 0 0 0 0 0
-55 0 -1 -3 -37 -2 -1 -4 -16 -59 -23 -12 -69 -4 -42 -13 -12 -15 -35 -9 0 -39 -22 -23 -41 -1 0 0 0 0 0 0 0 0 0 0 0 0 0 0 0 0 -4 0 0 0 0 0 0
-102 -7 0 -30 -59 -3 0 -19 -14 -6 -3 0 -17 -30 -13 -19 -2 -19 -19 -14 0 -50 -28 -27 -27 -9 -1 0 0 0 0 -1 0 0 0 0 0 0 0 0 0 -6 0 0 0 0 0 0 0
-10 -4 0 -9 -32 -1 -2 -9 -2 0 0 0 0 0 0 0 0 -20 0 -5 0 -24 -41 -20 -13 -3 -1 0 0 0 0 0 -1 0 0 -1 0 0 -1 0 0 -1 0 0 0 0 0 0 0
-19 0 0 0 -10 0 0 0 -2 0 0 0 0 -4 0 -2 -3 0 0 0 -12 0 -40 -24 -8 0 0 0 0 0 0 0 -1 -1 0 -1 -2 -1 -1 0 0 0 0 0 0 0 -1 0 -1
0 0 0 0 -13 -8 -3 -2 -13 -5 -1 0 0 0 0 0 -1 -2 0 0 -7 -29 -27 -24 -5 0 0 0 0 0 0 0 0 -2 0 0 0 0 0 0 0 -1 0 0 0 0 0 0 -1
0 0 0 0 0 -1 -1 -1 -3 -27 -1 0 0 0 0 0 -7 -4 -2 0 0 -8 -21 -23 -13 0 0 0 0 0 0 -1 0 0 -1 0 0 0 -1 0 0 0 -1 0 0 -2 -4 0 0
0 0 0 0 0 -2 -3 -1 -15 -5 -2 0 0 0 0 0 0 -4 0 0 0 -3 -11 -16 -10 -1 0 0 0 0 0 0 0 0 0 0 -3 0 -1 0 0 0 0 0 -2 -1 0 -5 0
0 0 0 0 0 0 -1 -1 0 -1 -14 -28 0 0 0 0 0 0 0 0 0 -1 0 -9 -15 -8 -1 0 0 0 -1 0 0 0 0 0 -1 0 0 0 0 0 0 0 0 -3 -2 -1 -1
0 0 0 0 0 0 0 0 -5 -12 -76 -45 -30 -21 0 -9 -2 -7 0 0 0 0 0 0 -11 -14 -8 -4 -2 0 0 0 -1 0 0 0 0 0 0 0 0 0 0 0 0 0 0 -1 -2
0 0 0 0 0 0 0 -1 -9 -72 -108 -108 -86 -90 -75 -30 -26 -22 -1 0 0 0 0 0 -10 -13 -14 -11 -8 -4 0 0 0 0 0 0 0 0 -1 -1 0 0 0 0 0 0 -1 0 0
0 0 0 0 0 0 0 -4 -4 -18 -96 -145 -229 -263 -207 -142 -96 -64 -75 0 0 -1 -5 -18 -18 -32 -23 -26 -21 -6 -1 0 0 0 0 0 0 0 0 -2 0 0 0 0 0 0 0 0 0
0 0 0 0 0 0 0 -3 -4 0 -79 -147 -66 -157 -261 -158 -128 -133 -12 -1 0 -6 -7 -19 -31 -37 -30 -32 -24 -17 -8 -5 0 0 0 0 0 0 0 0 -1 0 0 0 0 0 0 0 0
0 0 0 0 0 0 0 -6 0 0 0 -98 -183 -149 -233 -209 -158 -98 -59 -5 -1 0 -7 -15 -29 -53 -47 -40 -37 -26 -19 -16 -8 -1 0 0 0 0 0 0 0 0 0 0 0 0 0 0 0
0 0 0 0 0 0 0 -6 0 0 0 -87 -174 -110 -158 -229 -173 -111 -93 -59 -9 0 -9 -7 -3 -9 -32 -34 -27 -36 -37 -27 -14 -13 -6 0 0 0 0 0 0 0 0 0 0 0 0 0 0
0 0 0 0 0 0 -3 -28 0 0 0 -107 -107 -102 -123 -119 -202 -168 -88 -44 -55 -75 -2 0 -1 0 -3 -2 -15 -23 -40 -21 -23 -19 -15 -12 0 0 0 0 0 0 0 0 -1 -7 0 0 0
Wind_Speed
nan nan nan 18 8 3 nan 13 nan nan nan nan nan nan nan nan 23 15 nan nan 11 10 8 11 10 8 7 4 4 5 5 5 2 3 5 7 8 8 8 10 11 11 9 9 12 13 11 10 7
nan nan 15 20 12 nan 14 16 4 11 nan nan nan nan nan 9 nan nan nan nan 12 9 10 10 8 7 6 5 5 6 6 5 4 3 3 6 7 7 6 7 9 9 9 9 10 11 9 10 8
nan nan 11 20 nan 12 11 15 10 nan nan nan nan 11 13 13 nan nan nan 11 10 7 7 6 8 6 4 6 7 9 8 5 4 3 4 7 8 6 5 6 8 9 8 8 8 12 13 11 5
11 9 12 12 4 7 12 11 nan nan nan 13 4 6 nan nan nan nan nan 10 7 7 7 7 9 7 6 7 8 10 8 6 5 6 5 7 7 8 6 5 6 7 7 6 6 15 8 16 8
10 9 10 9 7 6 10 nan nan nan 5 5 9 nan nan nan nan nan nan 12 9 7 4 7 8 7 7 8 8 6 7 6 6 7 9 7 7 5 3 5 6 8 8 7 11 12 10 8 5
9 10 7 4 8 8 15 19 nan nan 10 6 3 nan 8 nan nan nan nan 11 10 6 4 4 3 4 5 7 6 5 6 6 6 7 8 9 6 4 1 6 5 7 9 9 11 10 6 5 6
11 11 5 4 11 14 nan 22 17 7 3 5 2 nan nan nan nan nan nan 9 6 5 2 2 3 3 6 6 5 6 6 6 6 6 6 5 6 3 5 8 6 7 8 8 10 10 6 3 3
12 12 7 2 11 14 nan 18 20 12 10 5 3 nan nan nan nan nan 6 8 6 4 4 6 8 6 7 9 6 5 5 4 5 5 5 5 5 5 6 10 8 6 8 8 8 7 5 4 4
9 10 3 4 6 14 8 9 20 17 9 9 5 6 nan nan nan nan 7 6 4 7 6 9 9 10 7 6 4 5 2 3 6 7 7 7 10 9 8 9 7 8 7 7 6 6 5 3 3
10 9 10 4 2 14 10 10 20 14 8 9 4 nan nan nan nan nan 7 5 8 5 7 6 8 9 11 10 8 8 5 6 8 7 9 7 10 10 6 6 6 6 5 5 4 5 8 15 4
8 10 10 9 12 16 nan 14 30 17 11 4 5 nan nan nan nan nan 6 6 5 6 7 6 3 9 13 8 10 9 5 6 5 6 8 6 8 11 8 11 8 6 12 6 9 10 7 9 9
5 nan nan 12 13 nan nan nan nan 23 23 10 3 nan nan nan nan 5 5 5 2 5 4 3 5 9 8 12 12 7 6 6 6 3 4 6 10 11 12 10 7 10 9 7 9 6 9 9 11
nan nan nan nan 9 2 nan 6 27 21 20 10 5 nan nan nan nan 4 4 5 3 5 4 3 4 8 10 15 7 8 4 9 4 6 5 8 7 6 9 10 9 10 10 8 10 10 14 15 14
nan nan nan nan nan 6 5 nan 10 18 17 8 nan nan nan nan nan 3 4 4 nan 5 3 3 5 5 9 8 10 9 9 6 11 10 6 7 9 7 6 9 8 10 12 10 12 10 16 21 21
nan nan nan nan nan nan 4 4 7 21 14 2 nan nan nan nan 2 3 5 nan nan 7 1 1 4 3 7 8 11 11 9 9 9 8 11 8 10 7 7 9 11 11 12 15 16 14 15 17 15
nan nan nan nan nan 6 5 8 11 15 13 5 nan nan nan 4 2 2 nan nan nan nan 3 1 4 2 5 6 10 9 11 9 11 8 14 13 11 11 13 12 11 11 15 14 15 15 17 18 17
nan nan nan nan nan 7 5 11 13 11 8 7 5 nan 3 7 3 1 nan nan nan nan 5 4 3 3 6 5 9 10 6 11 11 12 13 11 12 8 12 11 9 14 11 13 15 13 18 15 19
nan nan nan nan 7 6 5 17 16 17 10 8 3 1 3 3 4 2 4 5 nan nan 5 6 3 1 6 8 9 11 9 9 10 10 11 12 10 7 10 7 7 12 10 10 12 16 15 16 19
nan nan nan nan 15 12 10 15 19 16 9 10 6 1 1 1 1 2 5 6 7 nan 6 3 2 2 5 6 9 10 12 6 11 10 10 9 10 9 8 5 6 9 8 11 10 9 12 10 13
nan nan nan nan nan 18 nan nan nan 14 13 11 6 6 5 2 3 3 3 7 8 9 8 4 1 1 3 6 13 15 10 8 10 12 9 9 6 7 7 8 6 7 5 10 10 13 10 12 15
nan nan nan nan nan nan nan 31 29 28 22 13 9 4 8 4 1 3 3 6 8 10 10 7 2 2 5 8 11 12 12 10 5 6 10 8 6 5 5 5 9 7 12 6 12 13 19 13 14
nan nan nan nan nan nan nan nan 35 25 25 19 12 12 9 8 4 3 4 4 7 10 10 8 4 3 5 7 9 8 11 13 10 4 5 9 7 5 4 5 5 6 10 9 9 11 14 19 12
nan nan nan nan nan nan nan nan 30 34 28 23 17 14 10 7 6 6 2 5 10 11 11 9 6 4 5 7 11 9 14 9 12 9 4 4 9 7 5 4 4 3 8 6 9 9 12 9 17
nan nan nan nan nan nan nan nan nan nan 33 32 28 24 13 10 10 9 9 9 10 13 13 10 7 8 5 5 7 8 11 12 11 11 7 4 5 6 7 5 5 4 5 4 6 8 8 12 11
nan nan nan nan nan nan nan nan nan nan nan 36 39 33 24 16 10 11 9 9 9 8 11 13 10 9 8 5 6 8 8 8 8 6 7 5 3 5 2 5 5 4 5 5 7 6 8 7 8
nan nan nan nan nan nan nan nan nan nan nan 45 nan nan 34 25 14 10 9 10 10 8 10 12 12 11 9 7 6 9 9 10 8 6 12 5 6 3 7 1 3 5 4 5 6 5 7 6 6
nan nan nan nan nan nan nan nan nan nan nan nan 47 42 39 37 25 13 15 12 13 14 12 14 16 15 12 10 10 9 10 10 11 11 7 9 9 6 4 1 3 3 4 4 3 7 6 7 6
nan nan nan nan nan nan nan nan 52 nan nan nan nan 47 45 43 43 34 27 10 17 17 17 18 21 22 21 18 14 13 12 11 11 11 9 10 8 7 5 3 3 5 3 2 4 6 6 7 8
nan nan nan nan nan nan nan nan nan nan nan nan nan 47 47 47 45 46 46 42 24 22 23 22 21 22 24 20 18 16 16 14 14 12 10 9 8 7 4 2 3 3 3 4 5 10 9 6 8
nan nan nan nan nan nan nan nan nan nan nan nan 43 43 49 51 50 47 46 36 45 46 30 23 24 24 25 25 23 19 20 20 15 14 13 11 8 8 6 4 1 3 5 4 3 4 7 7 8
Wind_Direction
nan nan nan 3 332 60 nan 163 nan nan nan nan nan nan nan nan 129 136 nan nan 360 20 17 23 37 15 9 15 45 40 25 345 293 227 200 187 178 175 165 176 181 175 176 170 182 180 170 175 175
nan nan 24 16 90 nan 154 149 162 122 nan nan nan nan nan 147 nan nan nan nan 8 11 21 8 40 29 18 20 49 57 34 340 335 328 200 176 170 168 162 173 185 178 179 168 181 172 170 165 158
nan nan 48 30 nan 145 164 164 179 nan nan nan nan 138 131 137 nan nan nan 3 5 17 25 346 23 27 36 21 30 38 20 6 21 7 158 159 173 164 145 170 184 185 171 165 185 168 172 139 137
56 63 58 59 359 233 176 175 nan nan nan 149 43 116 nan nan nan nan nan 16 3 7 27 358 24 29 46 21 16 30 25 40 71 74 112 136 162 160 180 184 183 188 162 163 132 162 121 146 96
80 88 64 42 325 216 208 nan nan nan 172 146 109 nan nan nan nan nan nan 23 9 4 343 15 30 25 29 21 15 21 30 56 84 90 107 118 136 165 200 207 191 177 166 157 145 143 131 127 134
101 114 89 23 337 235 228 190 nan nan 192 159 169 nan 169 nan nan nan nan 35 13 358 344 342 24 32 9 12 9 30 49 72 83 95 102 105 119 141 218 231 196 173 163 155 151 165 156 194 151
123 117 152 345 301 326 nan 180 192 185 248 147 62 nan nan nan nan nan nan 44 26 5 310 49 54 3 5 360 20 37 36 59 81 83 99 103 97 85 87 118 162 159 148 148 162 180 199 218 203
129 121 108 39 7 323 nan 182 177 187 193 206 45 nan nan nan nan nan 51 53 40 19 53 74 52 30 30 24 40 53 44 69 96 86 82 62 73 83 82 89 133 142 148 153 168 179 200 200 214
144 113 219 166 44 351 330 256 184 185 209 157 148 115 nan nan nan nan 69 60 70 61 54 54 42 41 60 29 49 81 83 75 65 77 81 65 103 75 81 162 134 140 142 162 170 181 190 264 223
149 170 211 176 355 343 342 245 200 200 207 174 205 nan nan nan nan nan 79 65 51 49 65 76 52 43 62 61 71 90 73 109 116 97 90 85 78 132 141 132 149 141 137 170 156 133 87 72 80
210 217 249 240 284 310 nan 251 191 186 175 145 331 nan nan nan nan nan 66 66 72 65 79 63 88 65 66 96 67 77 86 92 110 123 95 98 74 71 92 83 88 88 81 68 56 65 142 162 142
196 nan nan 286 316 nan nan nan nan 166 184 135 354 nan nan nan nan 76 91 90 48 74 88 68 55 75 96 73 60 99 71 104 81 148 110 97 86 105 102 107 109 97 113 95 101 124 139 133 123
nan nan nan nan 337 41 nan 108 171 168 183 206 295 nan nan nan nan 56 72 100 77 55 88 71 46 80 77 81 81 78 68 72 71 77 139 154 137 123 80 101 98 110 99 88 88 106 126 124 128
nan nan nan nan nan 20 23 nan 156 220 179 211 nan nan nan nan nan 138 116 97 nan 89 85 39 30 65 81 81 76 86 86 87 82 85 107 135 160 128 97 86 101 104 104 93 77 109 120 128 127
nan nan nan nan nan nan 344 290 236 239 175 161 nan nan nan nan 182 162 139 nan nan 107 78 29 40 21 67 65 66 86 81 73 78 111 97 114 120 129 112 112 104 106 107 95 87 96 118 129 124
nan nan nan nan nan 229 73 267 252 226 189 147 nan nan nan 52 31 190 nan nan nan nan 124 27 84 36 60 52 79 87 90 102 103 79 111 93 97 111 101 103 111 122 106 100 96 103 104 116 115
nan nan nan nan nan 199 117 243 209 218 140 119 86 nan 57 47 59 232 nan nan nan nan 122 54 64 94 83 81 87 92 93 88 92 120 98 112 91 103 104 105 127 108 110 105 105 107 112 109 118
nan nan nan nan 205 176 170 217 229 234 213 155 146 66 49 66 64 221 204 189 nan nan 127 99 80 202 123 122 112 103 94 91 91 100 116 106 109 95 96 116 117 108 119 117 120 124 119 120 128
nan nan nan nan 240 161 152 197 222 204 180 174 160 147 29 43 79 277 193 201 201 nan 149 129 123 268 137 115 105 101 100 111 111 110 112 103 105 115 109 114 86 97 114 141 117 113 117 122 136
nan nan nan nan nan 161 nan nan nan 204 183 186 200 171 170 316 4 27 208 207 199 196 177 177 134 174 134 131 136 135 122 123 116 112 118 119 122 124 132 139 98 97 146 125 123 133 143 147 146
nan nan nan nan nan nan nan 214 209 201 205 229 266 205 133 175 135 94 129 211 202 208 198 181 185 133 133 154 162 154 147 137 115 128 122 121 101 114 135 117 132 135 122 124 119 129 136 149 141
nan nan nan nan nan nan nan nan 207 216 232 234 227 207 183 173 180 196 141 174 207 214 224 193 188 180 163 176 174 148 138 137 154 140 169 137 126 127 116 135 132 108 131 168 146 143 153 135 150
nan nan nan nan nan nan nan nan 216 209 221 219 225 222 198 204 188 162 198 194 201 204 222 220 184 197 190 192 157 181 144 157 143 154 214 141 140 126 116 101 111 125 107 177 171 159 146 152 149
nan nan nan nan nan nan nan nan nan nan 205 212 220 224 248 263 218 172 197 225 211 209 203 223 205 199 221 208 167 166 165 163 167 146 173 168 150 131 131 121 116 180 190 160 157 171 157 155 164
nan nan nan nan nan nan nan nan nan nan nan 218 218 221 219 209 273 236 190 221 232 229 227 217 215 198 224 210 191 164 167 168 164 157 139 157 146 148 234 127 152 163 175 202 180 178 180 161 158
nan nan nan nan nan nan nan nan nan nan nan 224 nan nan 212 201 201 172 209 219 206 208 221 224 232 213 215 221 193 193 183 184 182 163 145 161 159 199 263 126 190 164 164 174 196 189 168 204 170
nan nan nan nan nan nan nan nan nan nan nan nan 216 211 212 203 211 249 277 238 211 210 196 209 208 223 218 214 206 203 207 182 189 173 183 158 165 184 199 234 285 230 171 166 206 179 195 191 179
nan nan nan nan nan nan nan nan 230 nan nan nan nan 212 213 217 217 237 251 191 208 219 215 213 214 211 209 212 209 209 220 213 195 193 191 167 178 154 227 183 237 274 278 198 169 212 215 192 180
nan nan nan nan nan nan nan nan nan nan nan nan nan 215 216 219 224 233 224 211 218 225 221 217 219 215 223 217 211 211 215 228 220 206 205 202 197 191 189 213 184 224 257 254 214 182 199 202 190
nan nan nan nan nan nan nan nan nan nan nan nan 222 221 219 222 223 232 234 217 210 210 211 225 226 226 226 225 224 219 214 221 232 225 217 218 224 217 210 202 242 203 204 259 257 184 196 208 202